User: anonymous   Login
Location: Unspecified
(0.0000°N, 0.0000°E)
Time: 05:11:57
(UTC+02:00)
Language:

H-2A R/B - Orbit

View from above orbital plane
View from above orbital plane
View from above satellite
View from above satellite

Ground track
Ground track

The orbit data is extracted from the following two-line orbital elements,

1 26899U 01038B   16274.25981476  .00000366  00000-0  86272-3 0  9991
2 26899  27.9942 171.1576 7104813  15.5873 358.1670  2.47270076130076
Epoch (UTC): 30 September 2016 06:14:07
Eccentricity: 0.7104813
inclination: 27.9942°
perigee height: 310 km
apogee height: 33134 km
right ascension of ascending node: 171.1576°
argument of perigee: 15.5873°
revolutions per day: 2.47270076
mean anomaly at epoch: 358.1670°
orbit number at epoch: 13007

The dashed part of the orbit path shows where the satellite is in the earth's shadow,  

DLR